GFSWCAN_850_rhum_198.txt.gz
RH
79 65 52 57 73 80 82 82 76 70 70 70 60 52 54 59 62 85 90 67 86 72 56 51 51 47 41 37 44 39 55 44 48 58 60 54 51 40 38 32 38 46 50 54 52 69 76 24 24 38 35 26 26 25
59 64 68 78 88 81 71 68 67 69 71 57 44 44 48 53 57 68 94 81 89 96 69 68 75 70 67 51 55 75 62 46 43 60 58 62 64 62 52 66 32 57 47 58 49 50 33 26 26 24 24 27 34 34
69 74 78 80 77 71 65 61 59 55 53 52 62 70 72 72 72 75 93 84 97 89 61 69 58 58 64 69 69 72 62 51 51 53 76 72 68 46 63 50 38 31 25 49 45 34 28 28 27 26 29 35 36 33
75 73 73 70 65 56 52 58 61 62 67 78 83 73 64 59 55 49 89 94 94 90 97 54 53 57 62 64 63 68 65 59 56 62 75 72 64 36 45 37 40 37 30 36 41 36 34 33 32 33 34 33 33 34
83 82 76 65 61 62 67 73 82 80 74 70 63 57 53 50 62 77 93 84 86 94 89 66 61 50 46 47 50 53 55 57 62 73 80 80 54 56 53 55 60 42 43 57 63 44 48 44 39 34 34 37 36 38
85 82 76 73 73 80 82 77 72 62 56 50 51 63 66 64 61 95 94 98 97 91 96 70 40 40 40 44 47 49 51 51 61 76 66 62 60 65 82 58 38 34 31 29 34 32 35 42 57 51 47 46 52 58
97 96 93 84 77 73 66 61 57 56 69 70 64 62 59 54 72 92 97 91 62 94 93 71 47 37 46 46 55 51 48 49 53 70 77 62 56 52 71 76 46 39 37 35 41 56 66 71 76 82 84 73 76 80
82 78 72 66 60 56 55 62 72 69 66 65 62 55 52 52 76 89 90 64 80 92 92 79 57 42 36 41 54 48 58 69 78 71 59 56 52 50 71 45 38 38 54 66 76 87 99 99 99 96 98 99 97 99
60 56 54 52 57 68 75 74 70 70 70 70 61 82 90 92 94 98 91 74 86 89 77 72 63 63 63 52 47 60 77 78 63 76 65 62 69 85 52 39 52 58 93 99 92 96 96 94 99 97 95 95 97 92
53 49 51 61 73 78 70 69 75 77 77 70 86 95 57 98 78 62 95 97 89 89 88 67 55 71 61 67 68 64 76 79 75 55 52 90 64 49 50 63 82 99 99 98 99 95 98 95 95 98 98 98 97 97
54 60 67 74 73 71 70 73 75 80 81 98 91 93 97 64 82 83 81 81 70 78 68 60 65 74 84 92 90 81 81 77 84 60 67 65 73 91 85 70 69 74 80 99 98 98 96 98 98 99 98 98 98 98
60 63 76 77 74 70 70 72 79 86 92 93 89 77 79 81 82 77 69 64 59 53 73 88 93 96 97 98 98 80 86 76 74 80 87 73 94 54 55 62 73 80 96 95 96 98 97 98 98 98 98 98 99 99
75 62 66 73 71 76 81 80 81 98 86 82 67 82 70 77 80 76 68 62 63 76 77 67 84 99 97 99 94 81 86 72 51 89 72 94 53 52 60 64 70 74 82 89 98 99 99 97 98 98 99 99 100 99
70 62 61 68 69 73 76 78 84 90 93 92 84 75 72 73 62 46 45 51 58 58 56 58 74 98 96 99 76 90 62 56 76 76 93 65 55 57 60 65 70 78 90 98 99 100 99 98 97 98 99 99 99 100
60 57 70 71 68 73 80 86 79 87 94 84 62 68 66 50 50 58 63 65 59 53 57 69 77 83 86 95 80 70 81 77 82 92 73 62 55 58 62 67 73 87 69 85 94 100 100 99 97 97 98 97 100 100
72 80 84 74 76 83 91 90 81 96 96 83 63 63 58 66 73 87 87 77 71 62 59 60 90 80 80 91 90 78 78 92 94 72 67 60 60 63 67 76 66 65 70 90 84 84 99 100 99 98 98 98 97 99
73 90 81 74 79 94 97 99 97 96 85 70 60 62 64 68 78 80 78 71 70 70 76 59 70 65 61 66 51 52 74 81 78 73 70 65 69 76 80 71 70 67 76 92 79 85 96 98 100 99 95 98 98 97
94 95 80 73 87 97 99 97 97 82 66 57 63 66 64 66 73 77 78 76 78 77 68 62 58 58 58 48 54 66 82 99 82 76 74 77 85 87 76 73 65 73 84 81 78 90 89 93 94 97 98 97 98 99
98 88 73 75 79 98 97 97 88 82 60 56 59 63 65 69 72 78 82 81 80 80 91 80 66 63 60 55 68 73 72 74 75 78 83 83 85 84 80 78 79 80 81 77 77 80 85 86 89 88 94 97 99 98
92 90 78 84 90 98 96 82 85 74 58 54 55 60 63 68 70 73 83 94 87 98 96 91 68 59 60 65 69 74 74 80 81 84 86 87 85 86 85 83 81 81 79 80 81 79 86 86 84 89 85 92 98 97
91 96 90 90 99 94 95 84 76 67 61 55 54 62 72 71 72 77 82 81 99 93 72 62 63 61 61 69 68 75 89 86 99 94 97 94 86 83 85 79 80 79 82 84 84 82 86 85 81 91 86 91 94 98
90 88 89 98 97 96 87 73 64 66 76 67 65 63 67 75 77 78 79 81 84 74 71 69 69 69 79 89 89 88 88 82 92 94 91 92 90 85 84 80 81 80 83 82 78 81 82 80 97 90 94 90 91 97
96 93 96 96 97 85 71 68 68 62 64 62 57 61 67 65 62 66 71 70 70 66 63 65 82 87 83 89 88 92 88 94 97 94 88 86 86 85 79 77 78 78 79 78 77 81 81 83 99 97 79 86 84 94
98 97 90 90 84 74 71 68 66 60 58 64 62 67 62 58 55 61 75 62 58 54 55 71 95 94 93 96 95 98 97 94 82 80 74 81 91 78 81 81 80 80 74 74 77 82 98 95 93 87 85 88 88 90
98 91 97 87 85 87 81 75 64 61 71 64 65 70 69 54 63 64 64 53 92 100 100 99 98 98 97 96 95 93 82 82 87 89 91 83 82 93 93 88 74 70 70 86 96 95 95 94 94 96 96 99 96 94
92 89 92 74 78 77 72 80 78 74 62 81 72 54 58 84 86 61 55 96 97 98 98 97 98 97 94 86 80 90 96 97 98 91 86 92 91 85 83 81 83 85 92 97 95 96 87 94 100 100 100 98 96 93
88 76 89 80 71 74 78 70 61 63 70 71 74 69 62 74 64 73 97 96 97 94 88 82 78 76 77 79 92 99 100 100 98 96 96 91 87 84 88 96 95 98 91 91 80 94 96 98 100 100 100 98 97 96
77 67 75 78 78 69 75 71 65 64 62 74 83 77 80 81 82 78 79 81 98 92 80 81 91 94 100 100 100 97 100 92 95 95 82 74 84 67 80 70 51 47 53 89 100 99 99 98 99 100 100 100 100 100
72 60 63 81 75 68 69 66 63 62 95 83 82 74 64 55 55 60 70 72 77 77 96 100 100 100 99 98 96 99 95 98 97 94 94 93 91 87 75 67 69 81 100 97 100 100 100 100 100 99 99 100 98 96
66 69 68 78 88 78 62 59 67 90 96 88 84 74 62 59 71 82 85 95 78 99 100 98 98 99 100 99 98 93 91 96 93 96 100 100 97 96 100 100 100 92 87 99 100 100 100 100 100 95 94 93 93 95
84 87 80 71 70 63 71 80 86 86 81 70 70 73 71 72 96 89 97 95 76 98 100 99 99 98 100 100 100 100 97 93 91 89 91 97 98 100 99 100 100 92 100 100 100 100 100 100 100 100 100 100 99 99
89 79 66 66 60 57 67 71 69 65 65 67 65 63 64 66 72 95 86 96 100 100 96 91 100 99 96 100 100 100 100 100 91 97 100 100 100 97 100 100 100 100 100 100 100 100 100 100 100 100 100 98 97 100
80 76 72 68 62 59 58 64 59 53 50 51 52 54 64 80 67 100 81 68 97 100 99 100 100 100 100 100 99 100 100 96 95 94 95 97 100 100 100 100 100 100 100 100 100 100 100 100 100 98 98 98 99 97

GFSWCAN_850_rhum_204.txt.gz
RH
97 99 98 99 95 77 64 68 70 59 58 53 46 53 52 54 50 41 58 46 42 65 66 57 51 48 49 51 68 70 58 65 79 81 86 85 85 65 70 57 61 76 81 87 84 94 86 46 36 45 46 33 35 36
64 65 66 66 66 68 75 73 65 61 56 45 43 52 63 57 43 34 36 41 41 42 66 59 57 55 51 54 60 66 54 72 64 90 94 96 89 91 69 90 47 77 72 78 70 71 47 33 37 32 33 37 38 40
56 56 59 65 73 78 70 64 60 53 48 50 53 56 54 48 48 44 50 54 46 45 48 43 47 57 44 40 53 60 69 59 69 69 81 92 98 82 92 84 68 58 46 74 64 44 42 36 38 41 42 43 45 45
70 76 80 80 72 67 67 65 52 44 45 48 54 57 54 49 44 35 35 50 51 56 70 52 62 61 60 62 63 63 58 56 60 67 72 96 92 67 81 68 68 57 54 61 65 54 52 47 47 60 68 66 69 66
80 73 70 68 66 67 66 52 49 60 68 66 58 51 46 36 40 56 74 75 73 66 82 64 44 42 43 56 64 63 61 64 66 75 92 97 84 82 80 79 86 59 64 82 69 50 59 56 80 82 91 93 93 96
73 68 65 59 56 56 57 61 70 72 62 55 47 38 48 53 57 68 88 81 80 82 71 94 55 40 47 44 48 52 53 58 58 64 81 74 62 66 97 98 51 40 42 45 52 71 99 98 96 89 94 99 95 91
60 59 63 67 72 78 79 73 64 54 47 48 57 56 53 51 53 74 79 60 56 65 78 90 83 46 42 47 45 48 48 58 56 61 79 74 70 68 96 84 52 50 50 80 90 98 97 86 97 91 87 86 90 93
72 74 79 83 79 72 64 56 52 57 58 53 52 52 47 50 73 84 83 62 68 84 85 99 92 67 58 50 49 50 54 54 60 58 86 88 73 80 96 61 54 82 95 80 85 80 86 91 92 93 95 98 96 98
84 78 73 68 63 58 53 60 64 60 58 56 59 62 69 83 96 96 87 76 88 79 93 93 95 91 60 65 64 59 59 94 71 96 90 78 92 90 64 60 95 91 88 89 73 53 81 93 97 98 99 96 100 99
71 65 59 54 54 64 69 65 62 62 62 63 76 67 76 96 75 67 85 81 80 92 88 97 74 88 62 71 87 88 92 98 98 89 75 96 88 64 60 71 81 74 66 67 87 89 90 96 97 100 99 98 98 99
54 54 58 66 72 72 67 63 64 65 70 78 84 92 92 76 88 90 87 90 85 87 89 82 72 85 73 97 97 92 97 97 96 86 95 96 96 92 66 62 57 59 68 77 58 65 83 93 98 100 96 97 97 98
53 60 67 72 68 63 64 68 74 73 84 93 93 82 74 78 82 85 96 84 91 86 79 84 77 82 90 99 99 99 97 97 92 90 98 96 93 74 59 56 59 66 69 50 59 66 80 85 83 98 100 99 97 97
55 62 65 64 65 65 67 77 78 91 88 84 76 93 92 85 90 89 94 87 92 73 70 74 89 90 99 99 98 98 98 95 75 97 93 92 71 59 59 61 63 63 54 48 62 68 81 88 76 85 94 98 97 98
61 67 67 66 66 70 74 80 77 84 81 85 78 87 82 91 88 79 78 93 92 71 70 72 77 96 99 99 96 98 86 86 97 98 96 95 65 60 59 61 65 64 56 59 79 72 80 92 83 75 88 90 93 96
60 56 60 64 67 75 78 78 78 80 85 97 91 96 94 65 64 61 66 71 66 67 71 78 84 89 98 98 97 93 97 96 96 96 98 96 85 60 61 62 62 63 57 67 84 75 82 84 81 84 79 86 84 83
63 59 52 61 67 69 78 83 93 94 89 90 86 84 65 79 76 77 82 76 65 78 70 78 91 98 97 98 98 95 88 96 96 99 93 90 87 67 68 70 70 70 65 82 81 73 86 82 83 86 75 81 81 78
51 59 54 66 70 80 92 93 90 81 85 88 85 74 70 68 72 61 67 72 77 75 95 91 91 85 88 93 85 90 94 93 85 83 80 87 82 71 79 78 80 73 68 83 81 68 87 86 66 68 68 88 97 78
90 95 92 80 79 93 100 96 96 99 99 89 88 59 55 58 60 62 63 64 77 84 82 84 82 85 89 77 81 90 81 76 74 76 75 76 82 89 86 87 76 71 75 81 77 62 75 81 69 66 67 82 91 89
97 97 99 96 81 89 93 98 94 99 89 78 70 61 57 56 57 58 60 64 72 78 84 82 95 96 90 81 80 69 71 69 69 68 71 80 86 95 95 75 76 79 87 79 72 73 67 76 81 84 82 74 70 97
87 95 97 97 96 96 99 100 96 95 91 69 65 61 59 58 58 59 62 68 73 79 98 99 91 65 66 47 49 54 64 75 84 91 95 96 89 90 82 85 78 75 74 65 61 69 71 79 81 93 92 88 82 82
94 92 95 98 99 96 90 92 91 87 78 68 59 64 62 59 60 59 61 61 82 86 96 73 69 64 61 59 62 64 71 90 96 99 99 95 86 93 95 79 77 80 81 77 80 90 90 88 84 82 84 94 92 85
93 97 97 98 97 94 94 79 82 78 79 71 73 68 68 78 67 63 64 81 90 75 77 74 75 78 82 89 95 98 97 98 96 95 96 96 94 87 83 77 72 78 89 91 95 98 96 92 89 92 99 92 81 70
96 99 97 97 98 95 83 82 90 74 84 77 68 76 84 80 65 65 79 79 81 97 98 95 100 100 98 100 99 93 87 80 74 72 78 81 78 82 95 97 100 98 96 92 91 92 97 100 99 93 80 70 61 46
96 97 97 99 97 95 82 73 70 69 64 82 86 79 77 74 57 83 93 92 100 100 98 97 95 93 91 87 81 63 53 52 71 97 100 96 97 96 94 93 92 93 94 99 97 96 93 73 49 41 46 51 53 64
97 97 99 96 93 98 99 98 94 88 90 88 87 88 82 63 89 94 76 96 100 96 92 93 93 89 67 50 49 71 86 93 97 96 98 93 91 89 82 82 96 100 97 85 55 43 40 40 42 55 66 78 81 83
97 90 97 97 96 97 93 100 98 91 94 94 87 66 64 90 95 84 91 98 92 89 81 74 68 56 61 76 96 97 90 89 86 80 88 93 90 93 94 83 74 75 74 73 72 60 56 56 55 53 54 72 86 88
97 98 95 81 79 80 91 82 78 91 96 94 90 86 85 89 95 95 94 83 77 75 79 74 68 68 76 78 79 84 87 84 83 88 86 84 78 78 80 82 80 77 79 84 93 95 90 82 72 63 63 66 87 94
88 82 97 92 90 87 94 97 94 95 91 70 87 92 93 92 92 94 93 90 93 92 83 75 74 53 45 57 71 88 82 72 74 71 59 52 61 64 71 76 72 75 86 98 100 100 100 89 78 74 88 98 97 97
100 84 76 97 93 91 89 92 91 69 53 61 92 95 91 72 73 81 93 93 86 81 82 76 53 52 62 67 74 82 79 80 72 82 78 82 80 82 88 94 94 78 87 98 96 92 90 89 85 93 100 100 93 94
90 75 72 84 87 90 66 62 60 54 59 66 70 78 81 78 76 76 76 74 72 79 80 54 49 56 68 72 72 76 81 84 88 86 92 96 94 96 99 81 82 92 95 99 99 99 93 86 89 92 93 92 92 94
60 68 74 73 89 58 55 60 71 83 89 87 84 88 85 79 83 84 84 86 89 92 65 51 56 66 76 80 88 92 88 81 86 100 100 100 83 65 71 89 94 95 97 99 97 98 98 98 98 98 99 100 100 100
62 80 93 94 84 84 80 76 73 74 72 76 75 72 76 78 82 75 89 93 92 79 62 64 79 83 83 93 94 91 80 63 56 56 58 56 66 82 93 99 100 100 99 98 100 100 99 100 100 100 100 100 100 98
97 96 95 95 92 73 73 64 68 72 67 72 61 56 57 64 71 71 85 88 83 67 64 83 93 91 87 84 78 60 49 48 47 51 60 72 79 84 92 100 100 100 100 100 100 100 100 100 100 100 100 99 96 96

GFSWCAN_850_rhum_207.txt.gz
RH
86 84 82 72 72 78 81 64 63 78 76 66 61 55 44 48 52 45 48 41 36 63 68 49 45 47 48 47 73 68 59 65 78 82 84 87 85 67 70 58 65 74 78 89 87 98 84 41 40 48 45 35 38 38
97 96 84 70 76 76 65 60 57 60 64 60 54 51 46 52 41 42 42 44 40 44 64 53 50 48 44 44 51 64 52 70 62 91 95 96 91 93 73 86 48 74 68 76 71 68 46 39 39 36 37 42 44 48
82 70 70 78 78 67 64 61 55 48 50 54 51 46 46 42 42 30 32 32 29 50 47 44 48 39 34 39 49 54 67 63 66 60 82 95 87 81 94 89 67 59 53 78 62 45 41 37 38 42 45 49 66 78
67 72 79 75 68 64 58 49 46 47 49 51 48 46 40 34 32 43 33 34 30 38 56 60 60 59 57 56 46 42 38 60 64 63 74 97 94 72 82 66 70 60 51 60 58 52 52 49 50 54 71 86 88 90
78 77 71 68 62 54 44 43 46 52 58 56 50 44 35 26 35 35 41 46 45 41 70 55 49 45 47 59 63 67 66 63 68 77 93 94 83 85 83 84 85 57 59 83 68 50 60 65 87 84 99 100 96 98
66 64 63 62 53 47 53 64 69 64 56 48 41 37 47 47 45 47 48 53 41 33 31 72 46 49 46 40 48 60 56 72 91 70 78 70 67 69 95 95 64 43 44 48 54 69 99 87 77 84 92 93 93 95
64 63 57 56 57 63 70 68 57 50 42 41 48 48 46 42 41 53 67 51 40 32 40 77 76 46 45 50 50 52 56 64 70 65 78 74 74 72 97 83 55 48 55 76 96 98 84 74 88 70 89 97 98 99
60 63 67 70 70 65 58 51 47 51 54 50 48 46 47 62 69 72 62 59 56 65 76 97 89 60 59 51 50 55 54 62 62 58 85 88 80 79 96 74 58 68 78 78 86 72 75 76 72 74 85 100 97 100
75 77 74 70 62 55 53 58 60 57 55 53 50 50 65 71 88 81 73 76 64 64 90 91 86 84 65 66 67 66 64 93 75 95 92 81 89 95 74 66 57 78 83 77 70 58 54 56 81 83 86 100 100 100
72 67 63 58 54 56 62 60 59 57 58 67 68 63 82 97 83 75 81 77 76 85 83 94 85 92 60 73 86 88 95 97 98 90 87 98 93 64 54 56 76 59 59 74 78 54 63 72 91 81 92 100 100 100
61 57 56 59 65 65 63 64 64 64 74 71 84 88 80 84 90 90 89 84 88 88 91 84 79 84 77 94 97 92 96 97 97 88 93 96 96 93 74 70 56 59 67 73 54 58 65 80 89 83 85 98 100 100
52 57 65 70 71 69 69 69 68 67 73 87 75 71 79 79 80 82 96 86 94 87 86 85 76 81 84 98 99 98 97 98 93 90 98 97 90 79 66 57 61 64 65 53 47 61 67 79 88 86 84 86 96 87
56 65 72 69 66 67 68 73 83 85 88 79 83 92 86 89 88 81 89 88 93 78 79 85 88 90 100 99 98 97 97 94 82 98 93 94 74 71 59 58 62 62 54 52 50 68 68 80 76 80 88 80 85 87
69 70 70 70 69 68 72 73 76 82 78 80 79 86 82 94 89 81 80 95 96 94 76 73 84 97 99 98 96 96 87 90 97 98 94 96 75 62 60 60 54 49 57 59 56 72 70 84 82 69 71 67 84 91
70 72 71 70 73 78 79 77 74 76 76 88 88 96 99 66 66 63 64 79 74 72 76 86 92 96 98 98 97 92 98 96 95 94 98 91 71 64 62 60 61 63 63 62 62 74 65 78 85 68 64 62 80 76
61 59 61 68 70 74 75 78 80 82 82 90 97 92 82 82 76 65 76 81 65 74 72 88 93 98 99 98 97 95 96 97 90 98 71 72 70 66 69 66 70 72 71 65 63 73 66 76 86 75 64 68 69 65
59 52 49 60 67 74 85 89 88 86 82 93 90 85 74 72 69 63 57 65 76 80 93 93 94 89 90 98 96 93 88 88 74 61 60 72 78 72 75 73 75 81 82 68 72 78 72 61 80 80 71 70 76 75
57 84 60 71 73 89 96 94 88 95 90 99 100 60 67 63 59 58 59 63 73 83 84 87 83 97 96 80 86 87 76 67 68 66 65 64 63 70 78 84 87 91 86 69 81 86 81 74 74 72 69 83 84 82
84 92 91 86 80 82 97 98 96 97 92 94 80 73 69 60 54 52 55 57 62 72 80 88 97 100 92 84 79 47 58 68 64 61 64 66 71 76 85 92 86 84 78 80 85 72 73 80 80 80 81 85 86 82
85 82 83 98 99 88 94 98 98 100 97 78 77 71 67 62 54 56 57 60 65 80 97 98 95 71 69 51 49 51 60 72 77 79 78 84 93 97 98 98 97 95 92 88 87 84 78 74 76 83 82 86 96 96
82 92 99 98 99 97 95 94 98 96 85 82 67 68 66 63 61 59 58 63 87 94 96 73 66 61 61 75 82 94 99 99 97 96 96 96 93 96 94 94 96 95 95 91 86 76 81 97 99 98 94 97 98 97
88 97 99 100 98 98 98 86 85 90 87 81 78 70 70 80 69 62 69 89 92 72 72 69 72 81 93 94 95 96 94 92 92 82 73 75 81 76 70 75 83 90 95 98 99 97 96 96 97 97 98 94 87 74
98 97 98 97 97 99 85 91 94 84 89 78 78 81 86 84 66 70 82 79 81 88 94 100 99 100 98 96 96 93 82 63 51 56 77 97 100 100 100 98 96 92 91 93 96 98 96 96 95 82 61 43 39 40
97 97 98 96 97 97 89 80 80 77 74 88 90 82 80 76 66 94 95 84 87 94 100 99 96 97 96 94 79 60 49 62 82 93 94 89 86 82 82 80 81 90 100 100 96 84 65 51 45 44 43 43 41 43
97 96 99 96 98 98 97 100 98 94 95 90 91 91 83 62 92 96 87 78 83 98 100 98 97 94 85 64 52 53 69 88 89 85 88 92 94 82 77 79 84 82 81 82 78 72 66 67 68 65 60 60 58 52
97 84 96 91 98 96 94 100 100 96 95 95 93 74 76 92 93 87 85 77 82 94 95 91 86 82 70 62 70 81 70 64 69 67 80 93 90 82 81 79 75 70 72 71 72 81 83 85 91 87 76 74 73 66
96 97 96 84 82 86 93 88 81 93 98 97 95 91 88 96 95 86 85 82 80 80 79 82 84 81 73 73 62 56 64 77 77 77 83 80 72 86 88 75 74 76 78 79 82 77 91 100 100 97 92 85 80 78
88 83 95 98 96 83 92 98 96 96 92 78 85 89 87 89 87 71 66 68 73 86 91 92 92 85 76 48 47 60 84 85 76 75 68 58 67 63 72 82 87 89 85 74 81 86 96 98 96 92 94 94 91 91
100 88 82 100 98 100 95 91 91 79 63 66 90 91 84 58 55 60 67 80 92 96 92 83 85 84 56 50 56 68 82 78 79 75 73 51 41 51 69 71 65 60 69 83 90 92 94 96 94 99 100 100 99 98
96 84 90 94 98 96 80 70 71 60 60 60 60 63 67 67 67 71 78 92 92 79 77 84 87 65 51 58 68 76 80 86 88 82 65 58 56 48 51 55 61 70 80 87 93 93 88 92 96 97 97 94 93 93
72 88 84 83 89 64 63 59 58 62 65 71 72 79 81 82 83 83 79 82 87 94 96 94 78 58 60 65 72 78 84 90 83 67 59 57 54 53 59 68 75 76 76 84 97 100 100 100 100 99 99 99 99 100
79 89 91 96 91 78 76 84 84 82 85 87 80 78 80 83 82 69 64 68 83 88 90 85 68 61 60 69 88 97 98 97 62 50 52 54 56 61 72 78 74 80 94 98 97 100 100 100 100 100 100 100 100 100
94 93 88 87 90 82 82 75 82 77 67 72 69 60 60 62 68 60 64 62 72 81 84 78 76 80 81 90 96 96 72 54 61 67 69 65 65 72 80 75 81 95 98 99 99 100 100 100 100 100 100 100 100 100

GFSWCAN_850_rhum_210.txt.gz
RH
99 99 100 100 99 99 99 99 99 96 89 79 73 68 63 60 65 56 47 39 38 64 69 46 40 44 48 53 70 65 60 62 74 80 80 85 79 64 63 57 68 72 82 90 88 97 78 39 40 49 47 38 44 45
94 96 94 92 95 98 90 78 72 69 67 62 55 57 57 54 53 48 40 38 39 46 68 50 46 39 35 37 51 63 58 68 64 89 92 92 88 91 76 89 54 73 67 74 66 63 41 42 43 36 36 48 52 55
82 78 66 66 77 81 80 74 66 56 52 46 46 42 36 42 45 40 38 40 43 50 50 46 47 46 43 42 43 50 64 62 60 56 85 93 80 78 91 89 61 56 54 81 61 52 48 37 38 42 52 63 78 94
72 69 67 62 56 54 54 55 52 51 47 42 36 34 38 36 37 36 33 36 37 35 75 69 63 49 44 36 36 40 44 60 61 59 78 97 87 71 81 65 67 58 56 60 64 51 49 44 49 56 70 72 87 85
70 65 58 52 49 50 51 51 50 48 46 40 33 24 26 37 35 28 26 30 26 24 76 64 52 50 58 57 52 53 56 53 66 76 93 92 83 82 86 84 90 58 60 80 78 51 57 58 68 79 81 82 68 93
63 56 46 44 46 51 55 54 50 46 40 35 29 28 33 35 36 30 33 30 30 31 26 76 51 56 45 55 64 66 66 65 71 77 80 75 71 68 95 95 66 52 46 46 52 55 96 99 74 68 82 75 70 99
58 48 47 56 62 63 58 51 44 39 39 41 39 34 28 26 28 41 68 47 24 13 21 75 70 50 54 56 63 73 75 69 67 79 83 77 74 71 96 91 56 44 45 51 63 86 92 66 78 58 68 63 88 100
55 57 65 69 64 55 48 46 50 50 46 44 44 52 56 49 50 54 58 42 27 26 43 90 86 68 60 53 57 60 68 79 75 70 82 85 82 86 98 77 54 54 58 70 72 79 73 63 58 55 63 65 90 96
72 72 66 60 53 50 53 53 49 47 46 45 49 59 58 54 70 81 67 50 30 37 92 86 81 86 67 72 68 70 69 92 79 95 91 83 95 98 73 66 62 57 72 66 62 61 46 54 55 66 68 62 85 90
69 64 58 54 50 50 50 48 48 51 58 59 50 56 82 98 78 73 53 48 53 67 66 95 85 90 64 77 97 91 97 94 98 92 90 97 91 65 54 52 52 65 66 58 70 50 47 58 61 67 75 79 84 84
61 55 50 52 59 59 57 56 56 58 62 62 73 86 80 86 86 77 86 80 87 91 84 82 71 83 72 92 94 90 97 98 98 92 94 97 98 87 64 63 61 62 52 56 58 47 59 68 69 79 67 75 80 79
56 60 66 67 65 62 62 64 65 61 64 71 72 75 82 79 78 77 98 88 94 88 91 88 78 75 88 96 96 99 98 97 93 93 98 98 90 81 71 69 60 52 54 58 55 51 55 60 62 72 64 66 69 71
60 68 72 71 66 65 69 78 80 81 78 70 84 87 75 90 86 68 91 88 94 83 85 93 94 97 99 99 99 98 97 94 94 98 93 92 78 78 68 57 56 60 61 58 54 52 53 58 62 76 69 62 60 73
68 74 71 68 67 68 73 74 81 83 73 75 80 95 82 96 90 79 84 94 84 88 85 80 87 98 94 98 97 96 85 93 96 97 97 95 74 65 63 59 61 61 57 52 52 55 55 63 60 72 72 64 63 64
70 70 69 68 66 66 72 71 68 75 68 82 84 95 99 68 71 66 71 74 76 77 84 92 96 100 98 97 97 90 96 97 94 90 94 74 64 62 58 56 57 61 59 60 63 63 60 66 61 57 69 66 72 76
69 71 70 68 74 80 77 72 70 70 76 86 98 94 90 88 84 71 68 73 75 74 84 91 96 97 97 96 97 95 95 95 86 95 64 58 59 55 53 50 58 64 64 68 74 75 66 69 66 61 59 60 64 74
68 66 58 64 72 72 74 76 78 81 82 96 97 95 81 75 57 59 69 60 69 81 89 94 97 96 92 98 95 95 94 86 68 59 53 52 54 54 55 57 64 75 72 74 81 85 74 79 84 73 66 59 68 72
56 55 54 63 70 79 89 87 84 93 84 94 99 73 79 74 66 61 52 59 77 80 85 90 84 98 99 88 90 89 69 60 55 57 61 63 65 64 63 61 60 69 86 81 83 95 93 90 87 85 76 77 77 80
61 87 70 74 77 77 90 94 97 88 87 92 90 83 79 66 58 54 54 56 63 73 77 88 100 98 96 89 83 56 59 64 72 70 71 83 88 84 87 94 99 99 98 97 97 97 97 97 90 87 88 87 90 92
89 91 95 96 94 84 89 94 95 98 88 86 88 84 75 65 57 56 55 58 63 80 98 96 96 75 74 53 55 59 69 82 86 92 100 98 98 97 97 97 96 95 97 97 98 96 93 90 94 95 94 96 98 91
83 88 100 100 98 95 96 96 100 100 96 95 79 76 67 68 68 64 61 64 88 100 98 70 66 61 60 66 73 84 93 94 88 87 86 77 66 59 63 65 69 71 80 88 93 93 96 97 97 97 97 97 95 92
78 78 98 98 98 97 99 91 91 96 94 88 86 79 78 82 70 63 76 92 99 66 64 62 63 71 80 95 97 97 95 94 92 82 52 53 62 67 78 83 89 97 97 95 95 96 96 96 95 95 93 85 75 62
82 87 96 97 97 99 86 94 98 85 96 87 84 86 89 90 71 74 92 82 73 67 64 79 88 99 97 97 98 95 92 77 59 51 58 73 90 100 98 92 86 81 87 100 100 98 93 84 71 64 58 54 52 49
90 98 97 96 95 97 94 97 97 94 85 93 94 86 83 80 76 98 98 82 62 69 83 97 100 98 98 97 92 82 58 52 61 80 86 82 82 81 80 79 82 87 90 86 81 76 71 66 61 58 58 62 61 66
98 97 99 97 97 97 97 100 98 97 96 91 92 94 85 69 89 97 89 71 68 73 89 100 100 98 94 90 76 63 61 69 76 65 62 75 87 84 74 74 76 78 78 75 72 70 65 63 57 56 58 77 95 91
96 85 98 90 96 95 92 100 100 99 97 96 94 77 84 96 96 87 83 66 60 60 67 78 87 91 81 76 77 76 74 74 58 70 72 82 87 83 77 84 82 71 75 80 81 72 55 53 60 71 83 97 100 99
96 97 96 87 83 88 94 89 83 92 97 97 94 97 94 97 99 86 65 56 53 49 53 68 85 84 89 90 87 82 67 55 64 70 73 77 77 63 75 89 80 80 70 62 51 52 59 64 73 84 90 92 93 92
89 84 94 96 96 86 92 98 98 100 93 79 88 91 90 91 83 54 51 53 59 62 68 83 94 93 93 99 90 60 52 65 79 82 77 75 71 63 59 58 54 49 46 48 55 65 76 82 89 92 92 94 98 100
99 87 82 98 100 100 92 90 90 76 66 77 90 91 82 56 46 48 54 60 70 76 82 96 91 89 97 95 68 54 62 75 82 77 80 76 50 46 48 45 47 51 57 59 57 62 64 73 85 97 99 99 96 95
100 84 92 94 94 95 84 77 61 50 53 56 54 58 60 56 57 59 63 72 80 92 94 89 93 96 96 89 62 62 69 75 87 94 95 69 51 48 54 62 63 61 61 65 66 63 68 78 87 92 95 96 97 99
85 91 96 96 96 81 74 70 72 69 69 70 69 75 72 70 70 76 81 87 89 92 91 90 92 95 93 66 63 71 80 90 91 93 84 55 55 68 74 73 63 65 72 73 73 84 95 99 99 100 100 100 100 100
88 96 94 96 94 84 77 83 86 91 94 94 90 92 94 87 80 70 67 62 65 71 78 86 89 87 76 72 75 78 88 90 96 85 59 65 74 82 78 66 70 77 74 78 89 97 99 100 100 100 100 100 100 100
100 94 92 88 96 96 94 82 87 86 71 72 77 74 80 71 74 58 55 48 49 60 74 81 82 80 79 82 93 98 95 94 74 63 70 82 88 78 68 71 75 77 83 92 98 100 100 100 100 100 100 100 100 100